Location: Newark
(41.0400°S, 62.7845°W)
Time: 14:34:24
(UTC+00:00)

Vanguard 2 Rocket - Pass Details

Date: 02 December 2021
Orbit: 553 x 3325 km, 32.9° (Epoch: 22 January)

Event Time Altitude Azimuth Distance (km) Brightness Sun altitude
Rises 05:38:59 0° 2° (N) 7,245 - -23.0°
Exits shadow 05:44:54 - 15° (NNE) 6,653 10.9 -22.5°
Reaches altitude 10° 05:50:34 10° 30° (NNE) 6,220 10.8 -22.0°
Maximum altitude 05:54:47 11° 43° (NE) 6,019 10.9 -21.6°
Drops below altitude 10° 05:58:50 10° 56° (NE) 5,950 11.0 -21.2°
Sets 06:08:34 0° 85° (E) 6,369 11.6 -20.3°
